This is the latest recevied weather packets stored in our database for station/object AA1FF. If no packets are shown the sender has not sent any weather packets the latest 10 day(s).
| Time | Temp. | Humidity | Pressure | Rain* | Wind** | Luminosity | Snow |
|---|---|---|---|---|---|---|---|
| 1777915726 | 18.89° C | 31% | 1009 hPa | 0 mm | - | 679 W/m² | - |
| 1777915423 | 19.44° C | 31% | 1009 hPa | 0 mm | - | 899 W/m² | - |
| 1777915128 | 18.89° C | 32% | 1009 hPa | 0 mm | - | 910 W/m² | - |
| 1777914826 | 18.89° C | 32% | 1009 hPa | 0 mm | - | 904 W/m² | - |
| 1777914528 | 18.89° C | 31% | 1009 hPa | 0 mm | - | 911 W/m² | - |
| 1777914224 | 18.89° C | 31% | 1009 hPa | 0 mm | - | 920 W/m² | - |
| 1777913923 | 18.89° C | 32% | 1009 hPa | 0 mm | - | 917 W/m² | - |
| 1777913625 | 18.33° C | 32% | 1009 hPa | 0 mm | - | 944 W/m² | - |
| 1777913326 | 18.33° C | 33% | 1009 hPa | 0 mm | - | 914 W/m² | - |
| 1777913028 | 18.89° C | 32% | 1010 hPa | 0 mm | - | 935 W/m² | - |
| 1777912728 | 18.89° C | 32% | 1010 hPa | 0 mm | - | 919 W/m² | - |
| 1777912425 | 18.33° C | 32% | 1010 hPa | 0 mm | - | 910 W/m² | - |
| 1777912125 | 18.33° C | 32% | 1010 hPa | 0 mm | - | 917 W/m² | - |
| 1777911825 | 18.33° C | 32% | 1010 hPa | 0 mm | - | 920 W/m² | - |
| 1777911526 | 18.33° C | 33% | 1010 hPa | 0 mm | - | 921 W/m² | - |
| 1777911227 | 17.78° C | 33% | 1010 hPa | 0 mm | - | 913 W/m² | - |
| 1777910926 | 18.33° C | 32% | 1010 hPa | 0 mm | - | 913 W/m² | - |
| 1777910626 | 18.33° C | 34% | 1010 hPa | 0 mm | - | 913 W/m² | - |
| 1777910327 | 17.78° C | 34% | 1010 hPa | 0 mm | - | 904 W/m² | - |
| 1777910026 | 17.78° C | 33% | 1010 hPa | 0 mm | - | 897 W/m² | - |
| 1777909726 | 17.78° C | 34% | 1010 hPa | 0 mm | - | 896 W/m² | - |
| 1777909427 | 17.78° C | 35% | 1010 hPa | 0 mm | - | 886 W/m² | - |
| 1777909125 | 17.78° C | 34% | 1010 hPa | 0 mm | - | 846 W/m² | - |
| 1777908827 | 17.78° C | 35% | 1010 hPa | 0 mm | - | 890 W/m² | - |
| 1777908529 | 17.22° C | 35% | 1010 hPa | 0 mm | - | 848 W/m² | - |
* Rain latest hour (hover to see other rain measurements)
** Current wind speed in m/s (hover to see current wind gust speed)